This is the latest recevied weather packets stored in our database for station/object KG2V. If no packets are shown the sender has not sent any weather packets the latest 10 day(s).
| Time | Temp. | Humidity | Pressure | Rain* | Wind** | Luminosity | Snow |
|---|---|---|---|---|---|---|---|
| 1777468247 | 10.56° C | 89% | 1007.7 hPa | 0 mm | - | 84 W/m² | - |
| 1777467944 | 10.56° C | 89% | 1007.9 hPa | 0 mm | - | 104 W/m² | - |
| 1777467639 | 10.56° C | 90% | 1007.7 hPa | 0 mm | - | 125 W/m² | - |
| 1777467334 | 10.56° C | 90% | 1008.2 hPa | 0 mm | - | 104 W/m² | - |
| 1777467031 | 10.56° C | 89% | 1008.1 hPa | 0 mm | - | 72 W/m² | - |
| 1777466729 | 10.56° C | 90% | 1008.5 hPa | 0 mm | - | 61 W/m² | - |
| 1777466426 | 10° C | 90% | 1008.6 hPa | 0 mm | - | 64 W/m² | - |
| 1777466121 | 10° C | 90% | 1008.7 hPa | 0 mm | - | 52 W/m² | - |
| 1777465818 | 10° C | 90% | 1008.6 hPa | 0 mm | - | 44 W/m² | - |
| 1777465513 | 10° C | 91% | 1008.4 hPa | 0 mm | - | 36 W/m² | - |
| 1777465208 | 10.56° C | 92% | 1008.8 hPa | 0 mm | - | 31 W/m² | - |
| 1777464903 | 10.56° C | 92% | 1008.5 hPa | 0 mm | - | 26 W/m² | - |
| 1777464598 | 10.56° C | 92% | 1008.5 hPa | 0 mm | - | 35 W/m² | - |
| 1777464294 | 10.56° C | 92% | 1008.4 hPa | 0 mm | - | 33 W/m² | - |
| 1777463990 | 10.56° C | 92% | 1008.6 hPa | 0 mm | - | 20 W/m² | - |
| 1777463685 | 10.56° C | 92% | 1008.5 hPa | 0 mm | - | 32 W/m² | - |
| 1777463380 | 10.56° C | 92% | 1008.2 hPa | 0 mm | - | 34 W/m² | - |
| 1777463077 | 10.56° C | 92% | 1008.3 hPa | 0 mm | - | 40 W/m² | - |
| 1777462772 | 10.56° C | 92% | 1008.5 hPa | 0 mm | - | 38 W/m² | - |
| 1777462468 | 10.56° C | 93% | 1008.5 hPa | 0 mm | - | 47 W/m² | - |
| 1777462165 | 10.56° C | 93% | 1008.5 hPa | 0 mm | - | 29 W/m² | - |
| 1777461861 | 10.56° C | 93% | 1008.2 hPa | 0 mm | - | 22 W/m² | - |
| 1777461558 | 10.56° C | 93% | 1008.3 hPa | 0 mm | - | 17 W/m² | - |
| 1777461254 | 10.56° C | 93% | 1008.6 hPa | 0 mm | - | 16 W/m² | - |
| 1777460949 | 10.56° C | 93% | 1008.5 hPa | 0 mm | - | 13 W/m² | - |
* Rain latest hour (hover to see other rain measurements)
** Current wind speed in m/s (hover to see current wind gust speed)